Location: Ariel
(45.9570°N, 122.5700°W)
Time: 07:49:09
(UTC-07:00)

Vanguard 3 - Pass Details

Date: 26 August 2019
Orbit: 508 x 3263 km, 33.4° (Epoch: 21 September)

Event Time Altitude Azimuth Distance (km) Brightness Sun altitude
Rises 14:58:14 0° 209° (SSW) 6,365 12.4 47.7°
Reaches altitude 10° 15:04:51 10° 194° (SSW) 4,794 11.9 47.0°
Maximum altitude 15:12:03 17° 159° (SSE) 3,496 10.8 46.1°
Drops below altitude 10° 15:17:28 10° 122° (ESE) 3,441 10.3 45.4°
Sets 15:21:03 0° 103° (ESE) 3,985 10.4 45.0°
